TimeCST,TemperatureF,Dew PointF,Humidity,Sea Level PressureIn,VisibilityMPH,Wind Direction,Wind SpeedMPH,Gust SpeedMPH,PrecipitationIn,Events,Conditions,WindDirDegrees,DateUTC
12:55 AM,39.4,31.6,74,30.42,10.0,SE,10.4,-,N/A,,Clear,130,2012-11-17 06:55:00
1:55 AM,37.4,30.0,75,30.43,10.0,SSE,5.8,-,N/A,,Clear,150,2012-11-17 07:55:00
2:55 AM,36.7,29.3,75,30.43,10.0,SSE,5.8,-,N/A,,Clear,150,2012-11-17 08:55:00
3:55 AM,35.2,29.5,80,30.43,10.0,SSE,6.9,-,N/A,,Clear,150,2012-11-17 09:55:00
4:55 AM,33.4,28.2,81,30.43,10.0,SSE,6.9,-,N/A,,Clear,160,2012-11-17 10:55:00
5:55 AM,34.2,27.7,77,30.44,10.0,SSE,5.8,-,N/A,,Clear,160,2012-11-17 11:55:00
6:55 AM,34.3,27.1,75,30.45,10.0,SE,8.1,-,N/A,,Clear,140,2012-11-17 12:55:00
7:55 AM,36.5,28.8,74,30.47,10.0,SSE,5.8,-,N/A,,Clear,160,2012-11-17 13:55:00
8:55 AM,42.8,30.7,62,30.45,10.0,SE,13.8,-,N/A,,Clear,130,2012-11-17 14:55:00
9:55 AM,48.7,27.0,43,30.48,10.0,South,6.9,-,N/A,,Clear,170,2012-11-17 15:55:00
10:55 AM,54.3,19.2,25,30.47,10.0,SSE,8.1,-,N/A,,Clear,160,2012-11-17 16:55:00
11:55 AM,57.6,18.9,22,30.43,10.0,SE,8.1,-,N/A,,Clear,130,2012-11-17 17:55:00
12:55 PM,59.7,23.2,25,30.40,10.0,ESE,5.8,-,N/A,,Clear,110,2012-11-17 18:55:00
1:55 PM,60.6,25.3,26,30.38,10.0,Variable,3.5,-,N/A,,Clear,0,2012-11-17 19:55:00
2:55 PM,61.0,26.1,26,30.37,10.0,ESE,5.8,-,N/A,,Clear,120,2012-11-17 20:55:00
3:55 PM,59.9,25.2,26,30.37,10.0,SE,10.4,-,N/A,,Clear,130,2012-11-17 21:55:00
4:55 PM,54.1,26.8,35,30.36,10.0,SSE,5.8,-,N/A,,Clear,150,2012-11-17 22:55:00
5:55 PM,49.6,27.5,42,30.35,10.0,SE,8.1,-,N/A,,Clear,130,2012-11-17 23:55:00
6:55 PM,46.6,28.0,49,30.37,10.0,SE,6.9,-,N/A,,Clear,140,2012-11-18 00:55:00
7:55 PM,44.6,28.4,53,30.37,10.0,SE,8.1,-,N/A,,Clear,140,2012-11-18 01:55:00
8:55 PM,43.0,28.8,57,30.38,10.0,SE,8.1,-,N/A,,Clear,140,2012-11-18 02:55:00
9:55 PM,39.4,29.3,67,30.38,10.0,SE,6.9,-,N/A,,Clear,140,2012-11-18 03:55:00
10:55 PM,39.9,29.3,66,30.36,10.0,SE,10.4,-,N/A,,Clear,140,2012-11-18 04:55:00
11:55 PM,39.9,27.9,62,30.37,10.0,SSE,8.1,-,N/A,,Clear,150,2012-11-18 05:55:00